User: anonymous   Login
Location: Asheville, NC
(35.6000°N, 82.5500°W)
Time: 12:42:24
(UTC-05:00)
Language:

XW-2C - Orbit

View from above orbital plane
View from above orbital plane
View from above satellite
View from above satellite

Ground track
Ground track

The orbit data is extracted from the following two-line orbital elements,

1 40906U 15049H   18017.07571154  .00000602  00000-0  35718-4 0  9991
2 40906  97.4576  23.3807 0014799 187.6588 172.4420 15.14976334128616
Epoch (UTC): 17 January 2018 01:49:01
Eccentricity: 0.0014799
inclination: 97.4576°
perigee height: 511 km
apogee height: 531 km
right ascension of ascending node: 23.3807°
argument of perigee: 187.6588°
revolutions per day: 15.14976334
mean anomaly at epoch: 172.4420°
orbit number at epoch: 12861

The dashed part of the orbit path shows where the satellite is in the earth's shadow,  

DLR